TimeCST,TemperatureF,Dew PointF,Humidity,Sea Level PressureIn,VisibilityMPH,Wind Direction,Wind SpeedMPH,Gust SpeedMPH,PrecipitationIn,Events,Conditions,WindDirDegrees,DateUTC
12:15 AM,17.6,5.0,58,30.42,10.0,North,19.6,-,N/A,,Overcast,10,2014-02-26 06:15:00
12:35 AM,17.6,5.0,58,30.41,10.0,North,16.1,-,N/A,,Overcast,10,2014-02-26 06:35:00
12:55 AM,17.6,3.2,53,30.41,10.0,North,17.3,-,N/A,,Overcast,10,2014-02-26 06:55:00
1:15 AM,17.6,5.0,58,30.40,10.0,North,16.1,19.6,N/A,,Overcast,360,2014-02-26 07:15:00
1:35 AM,17.6,3.2,53,30.39,10.0,North,13.8,-,N/A,,Overcast,10,2014-02-26 07:35:00
1:55 AM,15.8,3.2,58,30.39,10.0,North,12.7,-,N/A,,Partly Cloudy,10,2014-02-26 07:55:00
2:15 AM,15.8,3.2,58,30.39,10.0,North,11.5,-,N/A,,Clear,360,2014-02-26 08:15:00
2:35 AM,15.8,3.2,58,30.39,10.0,North,10.4,-,N/A,,Clear,360,2014-02-26 08:35:00
2:55 AM,14.0,3.2,62,30.39,10.0,North,10.4,-,N/A,,Clear,350,2014-02-26 08:55:00
3:15 AM,14.0,3.2,62,30.38,10.0,North,6.9,-,N/A,,Clear,350,2014-02-26 09:15:00
3:35 AM,12.2,1.4,62,30.37,10.0,NNW,5.8,-,N/A,,Clear,330,2014-02-26 09:35:00
3:55 AM,12.2,1.4,62,30.36,10.0,NNW,6.9,-,N/A,,Clear,340,2014-02-26 09:55:00
4:15 AM,10.4,1.4,67,30.35,10.0,NW,5.8,-,N/A,,Clear,320,2014-02-26 10:15:00
4:35 AM,10.4,1.4,67,30.34,10.0,WNW,4.6,-,N/A,,Clear,300,2014-02-26 10:35:00
4:55 AM,10.4,1.4,67,30.32,10.0,WNW,5.8,-,N/A,,Clear,290,2014-02-26 10:55:00
5:15 AM,10.4,1.4,67,30.32,10.0,WNW,5.8,-,N/A,,Clear,290,2014-02-26 11:15:00
5:35 AM,8.6,1.4,73,30.31,10.0,West,6.9,-,N/A,,Clear,280,2014-02-26 11:35:00
5:55 AM,8.6,1.4,73,30.31,10.0,West,5.8,-,N/A,,Clear,270,2014-02-26 11:55:00
6:15 AM,8.6,1.4,73,30.30,10.0,WSW,6.9,-,N/A,,Clear,250,2014-02-26 12:15:00
6:35 AM,8.6,1.4,73,30.29,10.0,WSW,6.9,-,N/A,,Clear,250,2014-02-26 12:35:00
6:55 AM,8.6,1.4,73,30.29,10.0,WSW,5.8,-,N/A,,Clear,250,2014-02-26 12:55:00
7:15 AM,8.6,1.4,73,30.28,10.0,WSW,5.8,-,N/A,,Clear,250,2014-02-26 13:15:00
7:35 AM,8.6,1.4,73,30.28,10.0,West,4.6,-,N/A,,Clear,260,2014-02-26 13:35:00
7:55 AM,10.4,3.2,73,30.27,10.0,WSW,5.8,-,N/A,,Clear,240,2014-02-26 13:55:00
8:15 AM,12.2,5.0,73,30.28,10.0,WSW,5.8,-,N/A,,Clear,240,2014-02-26 14:15:00
8:35 AM,15.8,6.8,68,30.29,10.0,WSW,4.6,-,N/A,,Clear,240,2014-02-26 14:35:00
8:55 AM,17.6,6.8,63,30.29,10.0,SW,4.6,-,N/A,,Clear,220,2014-02-26 14:55:00
9:15 AM,17.6,6.8,63,30.28,10.0,SSW,6.9,-,N/A,,Clear,210,2014-02-26 15:15:00
9:35 AM,19.4,6.8,58,30.27,10.0,SW,6.9,-,N/A,,Clear,220,2014-02-26 15:35:00
9:55 AM,19.4,6.8,58,30.26,10.0,SSW,10.4,-,N/A,,Clear,210,2014-02-26 15:55:00
10:15 AM,21.2,6.8,54,30.26,10.0,SW,8.1,-,N/A,,Clear,220,2014-02-26 16:15:00
10:35 AM,21.2,8.6,58,30.25,10.0,SSW,6.9,-,N/A,,Clear,210,2014-02-26 16:35:00
10:55 AM,24.8,8.6,50,30.24,10.0,WSW,9.2,-,N/A,,Clear,240,2014-02-26 16:55:00
11:15 AM,24.8,6.8,46,30.23,10.0,SSW,8.1,-,N/A,,Clear,200,2014-02-26 17:15:00
11:35 AM,26.6,8.6,47,30.22,10.0,SW,8.1,-,N/A,,Clear,230,2014-02-26 17:35:00
11:55 AM,28.4,10.4,47,30.21,10.0,WSW,4.6,-,N/A,,Clear,240,2014-02-26 17:55:00
12:15 PM,28.4,10.4,47,30.20,10.0,South,6.9,-,N/A,,Clear,180,2014-02-26 18:15:00
12:35 PM,30.2,10.4,44,30.19,10.0,South,8.1,-,N/A,,Clear,190,2014-02-26 18:35:00
12:55 PM,32.0,10.4,41,30.17,10.0,South,6.9,-,N/A,,Clear,180,2014-02-26 18:55:00
1:15 PM,33.8,10.4,38,30.15,10.0,South,9.2,-,N/A,,Clear,170,2014-02-26 19:15:00
1:35 PM,33.8,10.4,38,30.14,10.0,WSW,9.2,-,N/A,,Clear,240,2014-02-26 19:35:00
1:55 PM,35.6,12.2,38,30.12,10.0,SW,9.2,16.1,N/A,,Clear,230,2014-02-26 19:55:00
2:15 PM,37.4,14.0,38,30.11,10.0,WSW,10.4,16.1,N/A,,Clear,240,2014-02-26 20:15:00
2:35 PM,37.4,14.0,38,30.09,10.0,WSW,8.1,-,N/A,,Clear,250,2014-02-26 20:35:00
2:55 PM,39.2,14.0,36,30.08,10.0,SW,9.2,16.1,N/A,,Clear,220,2014-02-26 20:55:00
3:15 PM,39.2,14.0,36,30.07,10.0,West,8.1,-,N/A,,Clear,270,2014-02-26 21:15:00
3:35 PM,39.2,15.8,39,30.06,10.0,SSW,9.2,-,N/A,,Clear,200,2014-02-26 21:35:00
3:55 PM,41.0,15.8,36,30.06,10.0,SW,11.5,17.3,N/A,,Clear,230,2014-02-26 21:55:00
4:15 PM,42.8,15.8,34,30.05,10.0,SW,5.8,-,N/A,,Clear,220,2014-02-26 22:15:00
4:35 PM,42.8,15.8,34,30.05,10.0,Calm,Calm,-,N/A,,Clear,0,2014-02-26 22:35:00
4:55 PM,42.8,17.6,36,30.04,10.0,WSW,6.9,-,N/A,,Clear,240,2014-02-26 22:55:00
5:15 PM,44.6,17.6,34,30.03,10.0,SW,8.1,-,N/A,,Clear,230,2014-02-26 23:15:00
5:35 PM,44.6,17.6,34,30.02,10.0,SSW,8.1,-,N/A,,Clear,210,2014-02-26 23:35:00
5:55 PM,44.6,15.8,31,30.02,10.0,WSW,5.8,-,N/A,,Clear,240,2014-02-26 23:55:00
6:15 PM,42.8,15.8,34,30.02,10.0,SW,3.5,-,N/A,,Clear,230,2014-02-27 00:15:00
6:35 PM,41.0,15.8,36,30.03,10.0,SW,4.6,-,N/A,,Clear,220,2014-02-27 00:35:00
6:55 PM,37.4,12.2,36,30.03,10.0,South,4.6,-,N/A,,Clear,190,2014-02-27 00:55:00
7:15 PM,37.4,14.0,38,30.03,10.0,South,4.6,-,N/A,,Clear,190,2014-02-27 01:15:00
7:35 PM,33.8,12.2,41,30.04,10.0,SSE,5.8,-,N/A,,Clear,160,2014-02-27 01:35:00
7:55 PM,30.2,10.4,44,30.04,10.0,Calm,Calm,-,N/A,,Clear,0,2014-02-27 01:55:00
8:15 PM,30.2,12.2,47,30.05,10.0,South,4.6,-,N/A,,Clear,190,2014-02-27 02:15:00
8:35 PM,28.4,10.4,47,30.05,10.0,Calm,Calm,-,N/A,,Clear,0,2014-02-27 02:35:00
8:55 PM,28.4,10.4,47,30.05,10.0,Calm,Calm,-,N/A,,Clear,0,2014-02-27 02:55:00
9:15 PM,26.6,8.6,47,30.05,10.0,SSW,6.9,-,N/A,,Clear,200,2014-02-27 03:15:00
9:35 PM,24.8,10.4,54,30.05,10.0,SW,5.8,-,N/A,,Clear,220,2014-02-27 03:35:00
9:55 PM,24.8,8.6,50,30.05,10.0,SW,6.9,-,N/A,,Clear,220,2014-02-27 03:55:00
10:15 PM,24.8,10.4,54,30.05,10.0,SSW,3.5,-,N/A,,Clear,210,2014-02-27 04:15:00
10:35 PM,24.8,10.4,54,30.05,10.0,SW,5.8,-,N/A,,Clear,220,2014-02-27 04:35:00
10:55 PM,23.0,10.4,59,30.05,10.0,WSW,3.5,-,N/A,,Clear,240,2014-02-27 04:55:00
11:15 PM,23.0,10.4,59,30.04,10.0,WSW,5.8,-,N/A,,Clear,240,2014-02-27 05:15:00
11:35 PM,23.0,10.4,59,30.04,10.0,WSW,6.9,-,N/A,,Clear,240,2014-02-27 05:35:00
11:55 PM,21.2,10.4,63,30.04,10.0,WSW,8.1,-,N/A,,Clear,240,2014-02-27 05:55:00